Weather History for LTCI - November, 2012

Change the Weather History Date:

Sunday, November 11, 2012

  Actual Average Record
Temperature  
Mean Temperature 55 °F -  
Max Temperature 61 °F 46 °F 61 °F (2012)
Min Temperature 49 °F 29 °F 26 °F (2014)
Degree Days  
Heating Degree Days 10    
Growing Degree Days 5 (Base 50)    
Moisture  
Dew Point 34 °F    
Average Humidity 47    
Maximum Humidity 62    
Minimum Humidity 17    
Precipitation  
Precipitation 0.01 in 0.05 in - ()
Sea Level Pressure  
Sea Level Pressure 30.09 in    
Wind  
Wind Speed 12 mph ()    
Max Wind Speed 18 mph    
Max Gust Speed -    
Visibility 6.2 miles    
Events Rain    
Averages and records for this station are not official NWS values.
T = Trace of Precipitation, MM = Missing Value Source: Averaged Metar Reports

Daily Weather History Graph

Daily Weather History Graph

Search for Another Location

Airport or City:

Trip Planner

Search our weather history database for the weather conditions in past years. The results will help you decide how hot, cold, wet, or windy it might be!

Date:

Astronomy

Nov. 11, 2012 Rise Set
Actual Time 5:44 AM EET 3:56 PM EET
Civil Twilight 5:15 AM EET 4:24 PM EET
Nautical Twilight 4:44 AM EET 4:56 PM EET
Astronomical Twilight 4:12 AM EET 5:27 PM EET
Moon 2:34 AM EET (11/11) 2:04 PM EET (11/11)
Length of Visible Light 11h 08m
Length of Day
10h 12m
Waning Crescent, 9% of the Moon is Illuminated
Nov 11
Waning Crescent
Nov 14
New
Nov 20
First Quarter
Nov 28
Full
Dec 6
Last Quarter

Hourly Weather History & Observations

Time (EET) Temp. Dew Point Humidity Pressure Visibility Wind Dir Wind Speed Gust Speed Precip Events Conditions
12:50 AM 50.0 °F 35.6 °F 58% 30.06 in 6.2 mi SE 12.7 mph - N/A   Scattered Clouds
1:50 AM 50.0 °F 37.4 °F 62% 30.06 in 6.2 mi SE 15.0 mph - N/A   Partly Cloudy
2:00 AM 50 °F 38 °F 52%  in 6 mi SE 16.1 mph - -   Partly Cloudy
2:50 AM 50.0 °F 37.4 °F 62% 30.04 in 6.2 mi SE 12.7 mph - N/A   Partly Cloudy
3:50 AM 50.0 °F 37.4 °F 62% 30.06 in 6.2 mi SSE 11.5 mph - N/A   Partly Cloudy
4:50 AM 50.0 °F 35.6 °F 58% 30.04 in 6.2 mi SE 12.7 mph - N/A   Partly Cloudy
5:50 AM 50.0 °F 35.6 °F 58% 30.06 in 6.2 mi SSE 9.2 mph - N/A   Partly Cloudy
6:50 AM 53.6 °F 35.6 °F 51% 30.09 in 6.2 mi SE 11.5 mph - N/A   Scattered Clouds
7:50 AM 55.4 °F 35.6 °F 47% 30.09 in 6.2 mi SE 12.7 mph - N/A   Scattered Clouds
8:00 AM 55 °F 36 °F 36%  in 6 mi SE 12.7 mph - -   Partly Cloudy
8:50 AM 57.2 °F 35.6 °F 44% 30.09 in 6.2 mi SSE 13.8 mph - N/A   Scattered Clouds
9:50 AM 59.0 °F 32.0 °F 36% 30.12 in 6.2 mi SSE 13.8 mph - N/A   Scattered Clouds
10:50 AM 59.0 °F 28.4 °F 31% 30.09 in 6.2 mi South 13.8 mph - N/A   Scattered Clouds
11:50 AM 60.8 °F 28.4 °F 29% 30.09 in 6.2 mi South 12.7 mph - N/A   Scattered Clouds
12:50 PM 60.8 °F 28.4 °F 29% 30.09 in 6.2 mi South 15.0 mph - N/A   Scattered Clouds
1:50 PM 59.0 °F 26.6 °F 29% 30.06 in 6.2 mi SSE 11.5 mph - N/A   Scattered Clouds
2:00 PM 59 °F 26 °F 17%  in 7 mi SSE 11.5 mph - -   Partly Cloudy
2:50 PM 57.2 °F 26.6 °F 31% 30.06 in 6.2 mi SE 11.5 mph - N/A   Mostly Cloudy
3:50 PM 55.4 °F 32.0 °F 41% 30.12 in 6.2 mi SSE 15.0 mph - N/A   Mostly Cloudy
4:50 PM 51.8 °F 33.8 °F 50% 30.12 in 6.2 mi SSE 11.5 mph - N/A Rain Light Rain Showers
5:50 PM 50.0 °F 35.6 °F 58% 30.12 in 6.2 mi SSE 10.4 mph - N/A   Mostly Cloudy
6:50 PM 51.8 °F 32.0 °F 47% 30.12 in 6.2 mi SE 10.4 mph - N/A   Mostly Cloudy
7:50 PM 51.8 °F 35.6 °F 54% 30.12 in 6.2 mi SE 15.0 mph - N/A   Mostly Cloudy
8:00 PM 53 °F 35 °F 39%  in 6 mi SE 16.1 mph - -   Partly Cloudy
8:50 PM 51.8 °F 35.6 °F 54% 30.12 in 6.2 mi SE 13.8 mph - N/A   Mostly Cloudy
9:50 PM 51.8 °F 37.4 °F 58% 30.09 in 6.2 mi ESE 16.1 mph - N/A   Mostly Cloudy
10:50 PM 50.0 °F 37.4 °F 62% 30.09 in 6.2 mi East 13.8 mph - N/A   Mostly Cloudy
11:50 PM 51.8 °F 35.6 °F 54% 30.06 in 6.2 mi ESE 18.4 mph - N/A   Mostly Cloudy